Regional Weather Roundup
Issued by NWS Jackson, KY

Home | Current Version | Previous Version | Graphics & Text | Print | Product List | Glossary On
Versions: 1 2 3 4 5 6 7 8 9 10 11 12 13 14 15 16 17 18 19 20 21 22 23 24 25 26 27 28 29 30 31 32 33 34 35 36 37 38 39 40 41 42 43 44 45 46 47 48 49 50
517
ASUS43 KJKL 251010
RWRJKL

EAST KENTUCKY HOURLY WEATHER ROUNDUP
NATIONAL WEATHER SERVICE JACKSON KY
600 AM EDT SUN SEP 25 2016

NOTE: "FAIR" INDICATES FEW OR NO CLOUDS BELOW 12,000 FEET WITH
NO SIGNIFICANT WEATHER AND/OR OBSTRUCTIONS TO VISIBILITY.

* THESE REPORTS ARE NOT UNDER NWS QUALITY CONTROL AND MAY NOT
  REPORT WEATHER SUCH AS PRECIPITATION AND FOG.

KYZ079-080-083-085-087-088-110-112-115-119-120-251100
...EASTERN KENTUCKY...

CITY           SKY/WX    TMP DP  RH WIND       PRES   REMARKS
JACKSON        CLEAR     67  63  87 CALM      30.13R
LONDON         CLEAR     63  60  90 CALM      30.11R
SOMERSET*      CLEAR     63  63 100 CALM      30.12R FOG
MONTICELLO*    MOCLDY    61  61 100 NE9       30.13R FOG
WILLIAMSBURG*  SUNNY     63  63 100 CALM      30.12R
MIDDLESBORO*   CLOUDY    61  61 100 CALM      30.14R FOG
HARLAN APT*    CLOUDY    63  61  94 CALM      30.15R
PIKE CO APT*     N/A     65  65 100 CALM      30.13S
MOREHEAD APT*  PTSUNNY   66  61  82 CALM      30.15S
ASHLAND*       CLEAR     64  59  82 CALM      30.12S
$$

KYZ035-036-041-042-044-050-067-078-099-251100
...CENTRAL KENTUCKY...

CITY           SKY/WX    TMP DP  RH WIND       PRES   REMARKS
MT STERLING*   CLEAR     64  63  94 CALM      30.14S
FLEMING/MASON* CLEAR     62  60  94 E3        30.15S
DANVILLE*      CLEAR     63  63 100 CALM      30.13R FOG
LEXINGTON      CLEAR     67  63  87 NE3       30.12R
FRANKFORT      CLEAR     68  63  84 E5        30.10S
LOUISVILLE     CLEAR     71  66  84 CALM      30.09R
LEBANON*         N/A     66  64  94 CALM      30.11R FOG
GLASGOW*       CLEAR    N/A N/A N/A E3        30.09S HAZE
BOWLING GREEN  CLEAR     67  65  93 CALM      30.08S FOG
$$

KYZ091>093-OHZ055-061-077-WVZ005-015-034-035-042-251100
...SOUTHERN OHIO/WEST VIRGINIA...

CITY           SKY/WX    TMP DP  RH WIND       PRES   REMARKS
COVINGTON      CLEAR     64  61  90 E6        30.13S
COLUMBUS       CLEAR     56  52  86 NE3       30.16S
DAYTON         CLEAR     58  53  84 E6        30.17R
WILMINGTON     CLEAR     57  54  89 E6        30.15S
HUNTINGTON     CLEAR     64  60  87 NE6       30.13R
CHARLESTON     FOG       62  61  96 CALM      30.13S VSB 1
PINEVILLE*       N/A     61  58  90 MISG      30.21R FOG
BECKLEY        CLEAR     61  59  93 CALM      30.19R
BLUEFIELD      CLEAR     62  59  90 NE3       30.21R
LOGAN CO APT*    N/A     66  64  94 CALM      30.14R FOG
$$

VAZ002-007-008-TNZ017-027-036-066-071-251100
...SOUTHWEST VIRGINIA/EAST TENNESSEE...

CITY           SKY/WX    TMP DP  RH WIND       PRES   REMARKS
WISE*          CLEAR     64  61  88 CALM      30.20S
JONESVILLE*      N/A     59  59 100 CALM      30.15R
ABINGDON*      CLEAR     63  61  93 E7        30.16S
BRISTOL        CLEAR     60  59  96 N3        30.13S
MORRISTOWN*    SUNNY     68  64  88 CALM      30.10S
SEVIERVILLE*   SUNNY     63  61  94 CALM      30.09S
KNOXVILLE      CLEAR     68  62  81 CALM      30.08R
CROSSVILLE     CLEAR     61  60  97 CALM      30.14R
NASHVILLE      CLEAR     66  64  93 CALM      30.08S
$$

...KEY TO REMARKS...
VSB - VISIBILITY IN MILES
WCI - WIND CHILL INDEX
HX  - HEAT INDEX

$$




USA.gov is the U.S. government's official web portal to all federal, state and local government web resources and services.